{"data":{"norad_id":55508,"intl_designator":"2023-017A","name":"AMAZONAS NEXUS","alt_names":[],"object_type":"PAYLOAD","status":"ACTIVE","operator":null,"country":"SPN","launch_date":"2023-02-07","launch_site_code":"AFETR","launch_vehicle":null,"mission":null,"orbit_class":"UNKNOWN","rcs_meters":null,"size_class":null,"mass_kg":null,"dimensions":null,"purposes":["comms"],"wikipedia_slug":null,"has_3d_model":false,"image_url":null,"decayed_at":null,"tle_current":{"epoch":"2026-05-24T23:22:38.556768Z","epoch_age_seconds":84197,"freshness":"FRESH","line1":"1 55508U 23017A   26144.97405737 -.00000285  00000+0  00000+0 0  9999","line2":"2 55508   0.0435  42.5068 0005393  10.6450 119.0817  1.00270250  6817","mean_motion":1.0027025,"eccentricity":0.0005393,"inclination_deg":0.0435,"raan_deg":42.5068,"arg_perigee_deg":10.645,"mean_anomaly_deg":119.0817,"bstar":0,"rev_number":681,"period_min":1436.1188887033,"perigee_km":35764.285610883,"apogee_km":35809.764954922,"semimajor_km":42165.162282902,"source":"CELESTRAK","updated_at":"2026-05-25T13:38:14.138580Z"}}}